Printer-friendly version
Follow the MPC on Twitter Follow the MPC on Facebook The MPC blog
Minor Planet Center

MPEC 2001-A03 : 2000 YE29

The following Minor Planet Electronic Circular may be linked-to from your own Web pages, but must not otherwise be redistributed electronically.

A form allowing access to any MPEC is at the bottom of this page.


Read MPEC 2001-A02 Read MPEC 2001-A04


M.P.E.C. 2001-A03                                Issued 2001 Jan. 1, 18:29 UT

     The Minor Planet Electronic Circulars contain information on unusual
         minor planets and routine data on comets.  They are published
   on behalf of Commission 20 of the International Astronomical Union by the
          Minor Planet Center, Smithsonian Astrophysical Observatory,
                          Cambridge, MA 02138, U.S.A.

             Prepared using the Tamkin Foundation Computer Network

                              MPC@CFA.HARVARD.EDU
          URL http://cfa-www.harvard.edu/iau/mpc.html  ISSN 1523-6714

                                   2000 YE29

Observations:
     K00Y29E* C2000 12 22.30540 09 11 18.51 +16 37 49.9          18.2 R      699
     K00Y29E  C2000 12 22.32975 09 11 20.34 +16 38 08.3                      699
     K00Y29E  C2000 12 22.35414 09 11 22.15 +16 38 26.3                      699
     K00Y29E  C2000 12 22.37857 09 11 23.96 +16 38 47.5                      699
     K00Y29E 7C2000 12 22.39986 09 11 25.57 +16 39 03.5          18.8 V      696
     K00Y29E 7C2000 12 22.40258 09 11 25.79 +16 39 05.5                      696
     K00Y29E  C2000 12 22.92733 09 12 06.95 +16 45 51.6          17.7 R      118
     K00Y29E  C2000 12 22.92836 09 12 07.05 +16 45 52.6                      118
     K00Y29E IC2000 12 22.93217 09 12 07.28 +16 45 56.1                      118
     K00Y29E  C2000 12 22.94541 09 12 08.31 +16 46 05.4                      046
     K00Y29E  C2000 12 22.95000 09 12 08.67 +16 46 08.5                      046
     K00Y29E  C2000 12 22.95193 09 12 08.85 +16 46 10.6                      046
     K00Y29E  C2000 12 22.95407 09 12 09.02 +16 46 12.4          17.4 R      046
     K00Y29E  C2000 12 23.06291 09 12 17.07 +16 47 39.1                      557
     K00Y29E  C2000 12 23.06884 09 12 17.57 +16 47 43.7                      557
     K00Y29E  C2000 12 23.07966 09 12 18.39 +16 47 52.3          18.6 V      611
     K00Y29E  C2000 12 23.08554 09 12 18.84 +16 47 57.2                      611
     K00Y29E  C2000 12 23.93889 09 13 25.06 +16 59 24.8          17.9 R      587
     K00Y29E  C2000 12 23.95116 09 13 26.00 +16 59 34.4                      587
     K00Y29E  C2000 12 24.08725 09 13 36.01 +17 01 27.6                      557
     K00Y29E  C2000 12 24.08953 09 13 36.13 +17 01 28.8                      557
     K00Y29E  C2000 12 24.09181 09 13 36.34 +17 01 30.6                      557
     K00Y29E  C2000 12 24.09409 09 13 36.48 +17 01 32.2                      557
     K00Y29E  C2000 12 24.09637 09 13 36.63 +17 01 34.2                      557
     K00Y29E  C2000 12 24.43645 09 14 02.70 +17 06 19.9          18.8 V      926
     K00Y29E  C2000 12 24.43938 09 14 02.89 +17 06 22.9          18.3 V      926
     K00Y29E  C2000 12 24.44164 09 14 03.08 +17 06 24.7          18.1 V      926
     K00Y29E  C2000 12 24.90884 09 14 39.26 +17 12 54.4          16.8 R      046
     K00Y29E  C2000 12 24.91094 09 14 39.32 +17 12 55.3                      046
     K00Y29E  C2000 12 24.91196 09 14 39.36 +17 12 56.5                      046
     K00Y29E  C2000 12 24.91400 09 14 39.56 +17 12 58.7          17.0 R      046
     K00Y29E  C2000 12 25.32826 09 15 10.59 +17 18 57.9          18.4 V      912
     K00Y29E  C2000 12 25.35050 09 15 12.29 +17 19 20.5          21.3 V      912
     K00Y29E  C2000 12 25.37265 09 15 13.72 +17 19 36.1          20.1 V      912
     K00Y29E  C2000 12 26.43072 09 16 33.24 +17 35 11.3          18.9 V      926
     K00Y29E  C2000 12 26.43245 09 16 33.34 +17 35 12.8          18.9 V      926
     K00Y29E  C2000 12 26.43419 09 16 33.48 +17 35 14.7          18.6 V      926
     K00Y29E  C2000 12 27.04685 09 17 19.13 +17 44 29.0          17.6 R      046
     K00Y29E  C2000 12 27.04824 09 17 19.22 +17 44 30.8                      046
     K00Y29E  C2000 12 27.04961 09 17 19.28 +17 44 31.6                      046
     K00Y29E  C2000 12 27.05091 09 17 19.44 +17 44 33.2          17.4 R      046
     K00Y29E  C2000 12 29.14936 09 19 52.37 +18 17 58.0                      557
     K00Y29E  C2000 12 29.15472 09 19 52.76 +18 18 03.3                      557
     K00Y29E  C2000 12 29.16067 09 19 53.15 +18 18 09.2                      557
     K00Y29E FC2000 12 29.40902 09 20 11.52 +18 22 25.2                      670
     K00Y29E FC2000 12 29.43598 09 20 13.27 +18 22 47.1                      670
     K00Y29E FC2000 12 29.45345 09 20 14.17 +18 23 05.5                      670
     K00Y29E  C2000 12 29.75490 09 20 35.99 +18 28 07.1          18.2 V      402
     K00Y29E  C2000 12 29.75616 09 20 36.09 +18 28 08.5                      402
     K00Y29E  C2000 12 29.75742 09 20 36.18 +18 28 10.3                      402
     K00Y29E  C2000 12 29.75869 09 20 36.26 +18 28 11.2                      402
     K00Y29E  C2000 12 30.37446 09 21 20.41 +18 38 41.2          17.9        704
     K00Y29E  C2000 12 30.38980 09 21 21.43 +18 38 57.0          18.1        704
     K00Y29E  C2000 12 30.40610 09 21 22.51 +18 39 13.9          17.7        704
     K00Y29E  C2000 12 30.42098 09 21 23.49 +18 39 29.9          18.2        704
     K00Y29E  C2000 12 30.43594 09 21 24.49 +18 39 45.0          18.2        704
     K00Y29E  C2001 01 01.06905 09 23 19.11 +19 08 37.9          17.6        106
     K00Y29E  C2001 01 01.09038 09 23 20.53 +19 09 01.4          17.7        106
     K00Y29E  C2001 01 01.10806 09 23 21.67 +19 09 20.5          17.7        106
     K00Y29E  C2001 01 01.17267 09 23 25.90 +19 10 30.0                      118
     K00Y29E  C2001 01 01.17972 09 23 26.39 +19 10 37.6                      118
     K00Y29E  C2001 01 01.18633 09 23 26.80 +19 10 44.8                      118

Observer details:
046 Klet.  Observers J. Ticha, M. Tichy, M. Kocer.  0.57-m f/5.2 reflector
    + CCD.
106 Crni Vrh.  Observer J. Skvarc.  0.36-m f/6.7 Schmidt-Cassegrain + CCD.
118 Modra.  Observers A. Galad, L. Kornos, P. Koleny, J. Toth.  0.6-m f/5.5
    reflector + CCD.
402 Dynic Astronomical Observatory.  Observer A. Sugie.  0.60-m f/3.7 reflector
    + CCD.
557 Ondrejov.  Observers P. Pravec, P. Kusnirak.  0.65-m f/3.6 reflector + CCD.
587 Sormano.  Observers F. Manca, A. Testa.  0.5-m reflector + CCD.
611 Starkenburg.  Observers M. Busch, S. Kraus, R. Stoss.  0.45-m f/4.4
    reflector + CCD.
670 Camarillo.  Observer J. E. Rogers.  0.30-m f/6.7 Helin Telescope + CCD.
696 Whipple Observatory, Mt. Hopkins.  Observer T. B. Spahr.  1.2-m reflector
    + CCD.
699 Lowell Observatory-LONEOS.  Observer B. A. Skiff.  Measurer B. W. Koehn.
    0.59-m LONEOS Schmidt + CCD.
704 Lincoln Laboratory ETS, New Mexico.  Observers M. Blythe, F. Shelly,
    M. Bezpalko, R. Huber, L. Manguso, S. Adams.  Measurers J. Stuart,
    R. Sayer, J. B. Evans, H. Viggh.  1.0-m f/2.15 reflector + CCD.
912 Carbuncle Hill Observatory, Greene.  Observer D. P. Pray.  0.30-m f/3.3
    Schmidt-Cassegrain + CCD.
926 Tenagra II Observatory.  Observer M. Schwartz.  Measurer P. R. Holvorcem.
    0.5-m f/10 Ritchey-Chretien + CCD.

Orbital elements:
2000 YE29
Epoch 2000 Dec. 22.0 TT = JDT 2451900.5                 Williams
M 345.76673              (2000.0)            P               Q
n   0.19238203     Peri.   48.50290     -0.90401849     -0.35760808
a   2.9718465      Node   109.33810     +0.27921802     -0.90884313
e   0.5159610      Incl.   14.37355     +0.32370955     -0.21475714
P   5.12           H   16.7           G   0.15
From 59 observations 2000 Dec. 22-2001 Jan. 1.

Ephemeris:
2000 YE29                a,e,i = 2.97, 0.52, 14                  q = 1.4385
Date    TT    R. A. (2000) Decl.     Delta      r     Elong.  Phase     V
2001 01 01    09 23.24   +19 07.5    0.676    1.578   143.3    21.9    17.9
2001 01 11    09 33.99   +22 37.3    0.603    1.540   151.4    17.8    17.5
2001 01 21    09 42.99   +26 58.8    0.548    1.507   158.2    14.0    17.1
2001 01 31    09 50.26   +31 50.7    0.514    1.480   160.8    12.6    16.9
2001 02 10    09 56.36   +36 35.5    0.499    1.459   157.3    15.1    16.8
2001 02 20    10 02.16   +40 32.6    0.501    1.446   150.3    19.8    17.0
2001 03 02    10 08.89   +43 12.0    0.519    1.439   142.9    24.6    17.2
2001 03 12    10 17.65   +44 22.6    0.548    1.440   136.1    28.6    17.4
2001 03 22    10 28.80   +44 09.0    0.587    1.448   130.4    31.6    17.7
2001 04 01    10 42.17   +42 42.5    0.635    1.463   125.6    33.7    17.9
2001 04 11    10 57.27   +40 18.1    0.690    1.485   121.6    35.1    18.2
2001 04 21    11 13.41   +37 10.5    0.754    1.513   118.0    35.9    18.5
2001 05 01    11 30.14   +33 32.7    0.826    1.547   114.8    36.3    18.7
2001 05 11    11 47.14   +29 36.9    0.907    1.586   111.6    36.3    19.0
2001 05 21    12 04.18   +25 32.6    0.997    1.630   108.4    36.1    19.2
2001 05 31    12 21.21   +21 27.2    1.097    1.677   105.1    35.7    19.5
2001 06 10    12 38.20   +17 26.6    1.207    1.727   101.7    35.1    19.7
2001 06 20    12 55.12   +13 34.6    1.326    1.780    98.0    34.4    20.0
2001 06 30    13 12.03   +09 53.8    1.454    1.835    94.2    33.5    20.2
2001 07 10    13 28.95   +06 25.6    1.591    1.892    90.3    32.5    20.5
2001 07 20    13 45.90   +03 10.9    1.734    1.950    86.1    31.3    20.7
2001 07 30    14 02.93   +00 09.7    1.884    2.009    81.8    30.0    20.9
2001 08 09    14 20.04   -02 37.8    2.038    2.068    77.4    28.6    21.1
2001 08 19    14 37.25   -05 11.9    2.196    2.128    72.8    27.0    21.3
2001 08 29    14 54.60   -07 33.1    2.356    2.188    68.0    25.3    21.4
2001 09 08    15 12.07   -09 41.4    2.516    2.248    63.1    23.6    21.6

Gareth V. Williams           (C) Copyright 2001 MPC           M.P.E.C. 2001-A03

Read MPEC 2001-A02 Read MPEC 2001-A04


MPEC number:

Enter an MPEC number in one of the following forms:

  • 1997-B01 (the full form)
  • J97B01 (the packed version of the full form)
  • B01 (the abbreviated form)

Valid HTML 4.01!